When you browse on this site, cookies collect data to enhance your experience and personalize the content and advertising you see.
Visit our Privacy Policy to learn more. By continuing to use the site, you agree to this use of cookies and data.
  • Em Portugal
  • Lista de países
  • Para 7 dias
  • Temperatura da água
  • Mapa do tempo
  • Widgets de tempo
  • user-avatar
    Iniciar Sessão

    Previsão horária em Costa Dourada

    Hoje, 14 Novembro, Quinta-feira

    Tempo Temperatura Precipitação Vento Pressão Humidade
    00:00 +17°C° 0 mm 2 m/s 757 mmHg 90%
    01:00 +17°C° 0 mm 2 m/s 757 mmHg 90%
    02:00 +17°C° 0 mm 2 m/s 757 mmHg 88%
    03:00 +17°C° 0 mm 2 m/s 756 mmHg 85%
    04:00 +17°C° 0 mm 2 m/s 756 mmHg 82%
    05:00 +20°C° 0 mm 1 m/s 757 mmHg 75%
    06:00 +22°C° 0 mm 1 m/s 757 mmHg 67%
    07:00 +24°C° 0 mm 1 m/s 758 mmHg 60%
    08:00 +25°C° 0 mm 1 m/s 758 mmHg 53%
    09:00 +27°C° 0 mm 2 m/s 757 mmHg 47%
    10:00 +29°C° 0 mm 2 m/s 757 mmHg 41%
    11:00 +29°C° 0 mm 3 m/s 757 mmHg 41%
    12:00 +29°C° 0 mm 3 m/s 756 mmHg 41%
    13:00 +30°C° 0 mm 4 m/s 756 mmHg 42%
    14:00 +28°C° 0 mm 4 m/s 755 mmHg 48%
    15:00 +27°C° 0 mm 4 m/s 755 mmHg 55%
    16:00 +26°C° 0 mm 5 m/s 754 mmHg 61%
    17:00 +23°C° 0 mm 4 m/s 755 mmHg 70%
    18:00 +22°C° 0 mm 3 m/s 755 mmHg 80%
    19:00 +20°C° 0 mm 3 m/s 756 mmHg 89%
    20:00 +20°C° 0 mm 2 m/s 756 mmHg 89%
    21:00 +20°C° 0 mm 2 m/s 757 mmHg 90%
    22:00 +21°C° 0 mm 1 m/s 758 mmHg 90%
    23:00 +21°C° 0 mm 1 m/s 757 mmHg 89%

    Amanhã, 15 Novembro, Sexta-feira

    Tempo Temperatura Precipitação Vento Pressão Humidade
    00:00 +21°C° 0 mm 1 m/s 757 mmHg 88%
    01:00 +22°C° 0 mm 1 m/s 756 mmHg 87%
    02:00 +21°C° 0 mm 1 m/s 756 mmHg 89%
    03:00 +20°C° 0 mm 1 m/s 756 mmHg 91%
    04:00 +19°C° 0 mm 1 m/s 756 mmHg 94%
    05:00 +21°C° 0 mm 1 m/s 757 mmHg 84%
    06:00 +23°C° 0 mm 1 m/s 757 mmHg 74%
    07:00 +25°C° 0 mm 1 m/s 757 mmHg 64%
    08:00 +28°C° 0 mm 1 m/s 757 mmHg 53%
    09:00 +30°C° 0 mm 2 m/s 757 mmHg 42%
    10:00 +32°C° 0 mm 2 m/s 757 mmHg 31%
    11:00 +34°C° 0 mm 3 m/s 756 mmHg 29%
    12:00 +35°C° 0 mm 3 m/s 755 mmHg 27%
    13:00 +36°C° 0 mm 4 m/s 755 mmHg 25%
    14:00 +34°C° 0 mm 5 m/s 754 mmHg 33%
    15:00 +33°C° 0 mm 5 m/s 754 mmHg 40%
    16:00 +30°C° 0 mm 6 m/s 753 mmHg 48%
    17:00 +28°C° 0 mm 5 m/s 754 mmHg 63%
    18:00 +25°C° 0 mm 4 m/s 754 mmHg 77%
    19:00 +22°C° 0 mm 4 m/s 755 mmHg 92%
    20:00 +22°C° 0 mm 4 m/s 755 mmHg 93%
    21:00 +21°C° 0 mm 4 m/s 756 mmHg 94%
    22:00 +21°C° 0 mm 3 m/s 756 mmHg 96%
    23:00 +20°C° 0 mm 3 m/s 756 mmHg 96%

    Depois de amanhã, 16 Novembro, Sábado

    Tempo Temperatura Precipitação Vento Pressão Humidade
    00:00 +20°C° 0 mm 3 m/s 756 mmHg 96%
    01:00 +20°C° 0 mm 3 m/s 756 mmHg 96%
    02:00 +19°C° 0 mm 3 m/s 756 mmHg 95%
    03:00 +19°C° 0 mm 3 m/s 756 mmHg 94%
    04:00 +19°C° 0 mm 3 m/s 756 mmHg 93%
    05:00 +21°C° 0 mm 3 m/s 756 mmHg 79%
    06:00 +25°C° 0 mm 2 m/s 756 mmHg 66%
    07:00 +27°C° 0 mm 2 m/s 757 mmHg 53%
    08:00 +30°C° 0 mm 3 m/s 757 mmHg 42%
    09:00 +34°C° 0 mm 3 m/s 757 mmHg 31%
    10:00 +36°C° 0 mm 4 m/s 757 mmHg 20%
    11:00 +37°C° 0 mm 4 m/s 756 mmHg 20%
    12:00 +38°C° 0 mm 4 m/s 755 mmHg 19%
    13:00 +40°C° 0 mm 4 m/s 755 mmHg 19%
    14:00 +36°C° 0 mm 3 m/s 754 mmHg 31%
    15:00 +33°C° 0 mm 3 m/s 754 mmHg 43%
    16:00 +29°C° 0 mm 3 m/s 754 mmHg 55%
    17:00 +27°C° 0 mm 3 m/s 754 mmHg 64%
    18:00 +25°C° 0 mm 3 m/s 755 mmHg 74%
    19:00 +24°C° 0 mm 2 m/s 756 mmHg 83%
    20:00 +22°C° 0 mm 3 m/s 756 mmHg 86%
    21:00 +22°C° 0 mm 3 m/s 757 mmHg 89%
    22:00 +21°C° 0 mm 4 m/s 757 mmHg 91%
    23:00 +20°C° 0 mm 4 m/s 757 mmHg 93%

    17 Novembro, Domingo

    Tempo Temperatura Precipitação Vento Pressão Humidade
    00:00 +20°C° 0 mm 3 m/s 757 mmHg 94%
    01:00 +19°C° 0 mm 3 m/s 756 mmHg 95%
    02:00 +19°C° 0 mm 3 m/s 756 mmHg 96%
    03:00 +19°C° 0 mm 3 m/s 756 mmHg 96%
    04:00 +18°C° 0 mm 2 m/s 756 mmHg 97%
    05:00 +20°C° 0 mm 2 m/s 757 mmHg 87%
    06:00 +23°C° 0 mm 1 m/s 757 mmHg 77%
    07:00 +25°C° 0 mm 1 m/s 758 mmHg 67%
    08:00 +28°C° 0 mm 2 m/s 757 mmHg 59%
    09:00 +30°C° 0 mm 2 m/s 757 mmHg 50%
    10:00 +34°C° 0 mm 3 m/s 757 mmHg 42%
    11:00 +33°C° 0.2 mm 3 m/s 756 mmHg 47%
    12:00 +31°C° 0.2 mm 3 m/s 755 mmHg 51%
    13:00 +30°C° 0.2 mm 3 m/s 755 mmHg 56%
    14:00 +28°C° 4.3 mm 4 m/s 754 mmHg 68%
    15:00 +25°C° 4.3 mm 4 m/s 754 mmHg 80%
    16:00 +21°C° 4.3 mm 5 m/s 754 mmHg 92%
    17:00 +21°C° 0.6 mm 5 m/s 755 mmHg 92%
    18:00 +21°C° 0.6 mm 5 m/s 755 mmHg 92%
    19:00 +20°C° 0.6 mm 5 m/s 756 mmHg 92%
    20:00 +20°C° 0.3 mm 4 m/s 756 mmHg 93%
    21:00 +20°C° 0.3 mm 4 m/s 757 mmHg 95%
    22:00 +19°C° 0.3 mm 3 m/s 757 mmHg 96%
    23:00 +19°C° 0 mm 3 m/s 757 mmHg 96%

    18 Novembro, Segunda-feira

    Tempo Temperatura Precipitação Vento Pressão Humidade
    00:00 +19°C° 0 mm 2 m/s 756 mmHg 96%
    01:00 +20°C° 0 mm 1 m/s 756 mmHg 95%
    02:00 +20°C° 0 mm 1 m/s 756 mmHg 96%
    03:00 +20°C° 0 mm 1 m/s 756 mmHg 96%
    04:00 +20°C° 0 mm 1 m/s 756 mmHg 96%
    05:00 +22°C° 0 mm 1 m/s 756 mmHg 89%
    06:00 +24°C° 0 mm 1 m/s 757 mmHg 81%
    07:00 +23°C° 0 mm 0 m/s 757 mmHg 74%
    08:00 +27°C° 0 mm 1 m/s 757 mmHg 65%
    09:00 +29°C° 0 mm 1 m/s 757 mmHg 55%
    10:00 +32°C° 0 mm 2 m/s 756 mmHg 46%
    11:00 +32°C° 0 mm 2 m/s 756 mmHg 44%
    12:00 +34°C° 0 mm 3 m/s 755 mmHg 42%
    13:00 +34°C° 0 mm 3 m/s 754 mmHg 40%
    14:00 +33°C° 0 mm 3 m/s 753 mmHg 48%
    15:00 +30°C° 0 mm 4 m/s 753 mmHg 56%
    16:00 +28°C° 0 mm 4 m/s 752 mmHg 63%
    17:00 +27°C° 0 mm 3 m/s 753 mmHg 73%
    18:00 +25°C° 0 mm 2 m/s 753 mmHg 83%
    19:00 +23°C° 0 mm 1 m/s 754 mmHg 92%
    20:00 +23°C° 0 mm 2 m/s 754 mmHg 93%
    21:00 +21°C° 0 mm 2 m/s 755 mmHg 95%
    22:00 +21°C° 0 mm 2 m/s 755 mmHg 96%
    23:00 +21°C° 0 mm 2 m/s 755 mmHg 96%

    19 Novembro, Terça-feira

    Tempo Temperatura Precipitação Vento Pressão Humidade
    00:00 +21°C° 0 mm 2 m/s 755 mmHg 96%
    01:00 +21°C° 0 mm 2 m/s 755 mmHg 96%
    02:00 +21°C° 0 mm 2 m/s 755 mmHg 96%
    03:00 +20°C° 0 mm 2 m/s 754 mmHg 95%
    04:00 +20°C° 0 mm 2 m/s 754 mmHg 95%
    05:00 +23°C° 0 mm 2 m/s 755 mmHg 87%
    06:00 +24°C° 0 mm 2 m/s 755 mmHg 79%
    07:00 +26°C° 0 mm 2 m/s 755 mmHg 70%
    08:00 +29°C° 0 mm 2 m/s 755 mmHg 60%
    09:00 +31°C° 0 mm 2 m/s 755 mmHg 49%
    10:00 +35°C° 0 mm 3 m/s 754 mmHg 38%
    11:00 +35°C° 0 mm 3 m/s 754 mmHg 36%
    12:00 +36°C° 0 mm 3 m/s 753 mmHg 34%
    13:00 +37°C° 0 mm 4 m/s 752 mmHg 32%
    14:00 +35°C° 0 mm 4 m/s 752 mmHg 40%
    15:00 +33°C° 0 mm 4 m/s 751 mmHg 48%
    16:00 +30°C° 0 mm 4 m/s 751 mmHg 56%
    17:00 +28°C° 0 mm 4 m/s 751 mmHg 66%
    18:00 +26°C° 0 mm 3 m/s 752 mmHg 77%
    19:00 +23°C° 0 mm 2 m/s 752 mmHg 87%
    20:00 +23°C° 0 mm 2 m/s 753 mmHg 89%
    21:00 +21°C° 0 mm 2 m/s 753 mmHg 92%
    22:00 +21°C° 0 mm 2 m/s 754 mmHg 94%
    23:00 +21°C° 0 mm 2 m/s 753 mmHg 92%
    Mostrar mais